Regional Weather Roundup
Issued by NWS Wakefield, VA

Home | Current Version | Previous Version | Graphics & Text | Print | Product List | Glossary On
Versions: 1 2 3 4 5 6 7 8 9 10 11 12 13 14 15 16 17 18 19 20 21 22 23 24 25 26 27 28
000
ASUS41 KAKQ 252115
RWRAKQ

REGIONAL WEATHER ROUNDUP
NATIONAL WEATHER SERVICE WAKEFIELD VA
500 PM EDT MON JUL 25 2016

Note: "fair" indicates few or no clouds below 12,000 feet with no
significant weather and/or obstructions to visibility. * = Denotes
station may not report precipitation (e.g., rain,snow,etc.),
thunder or fog.

VAZ042-051-052>054-056-252200-
NORTHERN VIRGINIA

CITY           SKY/WX    TMP DP  RH WIND       PRES   REMARKS
WASH NATIONAL  PTSUNNY   96  70  42 S14       29.84F HX 102
DULLES         PTSUNNY   99  68  36 SW13      29.85F HX 104
FORT BELVOIR   FAIR      98  67  36 S12       29.85F HX 101
QUANTICO       NOT AVBL
FREDERICKSBRG*   N/A     95  73  48 S8        29.86F HX 104
STAFFORD*      FAIR      95  69  42 SW10G17   29.91S HX 100
WARRENTON      FAIR      93  65  39 S8        29.87S HX  95
CULPEPER*      FAIR      94  72  48 SW9       29.88S HX 101
MANASSAS*      SUNNY     97  64  34 CALM      29.85F HX  99
LEESBURG*      FAIR      97  73  46 SW7       29.88R HX 107
WINCHESTER     TSTM      72  68  88 NE12G38   29.95R VSB 1/2
FRONT ROYAL*   MOCLDY    88  72  58 W5        29.88S
LURAY*         FAIR      95  72  46 SW15      29.91F HX 103
$$

VAZ048-049-060>072-079>083-252200-
CENTRAL AND SOUTH CENTRAL VIRGINIA

CITY           SKY/WX    TMP DP  RH WIND       PRES   REMARKS
RICHMOND       CLOUDY    94  73  50 SW13      29.89F HX 103
CHESTERFIELD*  FAIR      97  70  41 SW7       29.91F HX 103
PETERSBURG*    FAIR      96  74  48 SW6       29.92F HX 107
HANOVER        FAIR      96  70  42 SW8       29.90F HX 102
TAPPAHANNOCK*  FAIR      95  70  45 S8        29.89F HX 101
QUINTON*       FAIR      93  77  58 CALM      29.90F HX 107
CHARLOTTSVILLE FAIR      97  72  44 SW9       29.90F HX 105
GORDONSVILLE*  FAIR      96  76  51 SW8       29.89S HX 109
ORANGE*          N/A     93  73  52 CALM      29.91S HX 102
LOUISA*        FAIR      95  79  59 CALM      29.89S HX 112
BUMPASS*       FAIR      91  77  61 S3        29.89F HX 104
FARMVILLE*     NOT AVBL
CREWE*         FAIR      97  72  44 SW7       29.92S HX 106
FORT PICKETT*  FAIR      95  72  47 SW13G22   29.93S HX 102
CHASE CITY*    FAIR      95  72  47 S5        29.94F HX 103
CLARKSVILLE*   FAIR      95  73  49 SW9       29.93F HX 105
SOUTH HILL*    FAIR      95  74  51 SW13      29.99F HX 105
LAWRENCEVILLE* MOCLDY    94  76  54 SW9G18    29.93F HX 106
EMPORIA*       FAIR      95  72  46 S9G21     29.94S HX 103
$$

VAZ088>098-252200-
SOUTHEAST VIRGINIA

CITY           SKY/WX    TMP DP  RH WIND       PRES   REMARKS
NORFOLK        FAIR      98  69  38 SW13G23   29.91F HX 104
VIRGINIA BEACH PTSUNNY  100  72  40 SW14G23   29.91F HX 109
NORFOLK NAVAL  PTSUNNY   97  70  41 SW13      29.93F HX 103
WEST POINT*    FAIR      93  74  54 SW7       29.91S HX 103
SALUDA*        FAIR      93  76  58 SW6       29.90S HX 106
NEWPORT NEWS   FAIR      94  75  54 SW10      29.91F HX 105
LANGLEY AFB    NOT AVBL
FORT EUSTIS    FAIR      95  77  57 VRB6      29.89F HX 109
WILLIAMSBURG*  FAIR      97  75  49 S6        29.92F HX 109
HR EXEC AP*    FAIR      95  73  49 SW12G20   29.94S HX 105
FRANKLIN*      FAIR      94  74  51 SW6       29.93S HX 104
US460-WAKEFLD  FAIR      94  74  52 VRB7      29.91F HX 104
$$

VAZ020-022-025-037-045-252200-
WEST CENTRAL AND SOUTHWEST VIRGINIA

CITY           SKY/WX    TMP DP  RH WIND       PRES   REMARKS
STAUNTON*      FAIR      91  73  55 SW9       29.96S HX  99
WAYNESBORO*    FAIR      91  71  51 SW9G16    29.97F HX  98
HOT SPRINGS VA FAIR      82  68  61 W12       30.14F
LYNCHBURG      FAIR      91  75  59 VRB5      29.97F HX 101
DANVILLE       FAIR      96  70  42 VRB3      29.94F HX 102
SOUTH BOSTON*  FAIR      96  70  42 S5        29.93F HX 103
MARTINSVILLE   FAIR      85  71  61 NW5       30.00S
ROANOKE        PTSUNNY   94  71  47 S10       29.98F HX 101
BLACKSBURG     FAIR      90  73  57 SW3       30.08S HX  98
DUBLIN*        PTSUNNY   88  74  63 SW7       30.07S HX  96
MARION*        FAIR      91  70  49 SW6       30.11S HX  97
HILLSVILLE*    PTSUNNY   80  72  76 S6        30.10F
RICHLANDS*     FAIR      88  71  58 NW7       30.10S
WISE*          CLOUDY    84  63  48 NW5       30.11S
ABINGDON*      FAIR      93  65  39 NW3       30.05F
$$

MDZ021>025-VAZ099-100-252200-
SOUTHERN MARYLAND AND THE DELMARVA PENINSULA

CITY           SKY/WX    TMP DP  RH WIND       PRES   REMARKS
PATUXENT RIVER PTSUNNY   99  64  31 SW15G23   29.85F HX 101
BAY BRIDGE APT MOSUNNY   97  77  52 S7        29.84F HX 112
LEONARDTOWN    SUNNY     97  64  34 SW14      29.88S HX  99
DOVER          NOT AVBL
GEORGETOWN     SUNNY     98  72  42 SW14      29.86F HX 107
EASTON         PTSUNNY   97  77  52 SW12      29.89F HX 112
CAMBRIDGE      SUNNY     95  72  46 S5        29.85F HX 103
SALISBURY      SUNNY     93  78  61 S10       29.87F HX 108
OCEAN CITY     SUNNY     88  78  72 S9        29.88F HX 101
WALLOPS ISLAND FAIR      88  78  72 S16       29.90F HX 101
ACCOMACK*      FAIR      93  72  49 SW12G20   29.90F HX 100
$$

NCZ012>017-030>032-252200-
NORTH CENTRAL AND EASTERN NORTH CAROLINA

CITY           SKY/WX    TMP DP  RH WIND       PRES   REMARKS
ROANOKE RAPIDS FAIR      93  73  52 SW12      29.94F HX 102
RALEIGH        PTSUNNY   92  74  55 SW10      29.95F HX 101
ELIZABETH CITY SUNNY     92  73  53 S9G20     29.94F HX 100
AHOSKIE*       SUNNY     91  77  62 S3        29.95S HX 104
EDENTON*       SUNNY     94  71  46 SW7       29.95F HX 101
CURRITUCK*     SUNNY     92  73  53 S6        29.94F HX 101
KILL DEVIL HLS SUNNY     94  76  55 S9G16     29.95F HX 106
MANTEO           N/A     91  78  67 SW20      29.97F HX 106
CAPE HATTERAS  SUNNY     85  78  80 SW10G18   30.00F HX  96
TARBORO*       FAIR      94  75  54 SW8       29.96S HX 105
GOLDSBORO      MOSUNNY   96  73  46 S10       29.95F HX 106
WASHINGTON     NOT AVBL
GREENVILLE     MOSUNNY   95  75  52 SW7       29.98S HX 107
NEW BERN       SUNNY     91  76  61 S10G18    29.99F HX 103
WILMINGTON     SUNNY     90  71  53 SW12      30.00F HX  96
$$

VAZ048-252200-
ELSEWHERE

CITY           SKY/WX    TMP DP  RH WIND       PRES   REMARKS
HARRISBURG PA  PTSUNNY   95  75  52 CALM      29.82F HX 107
BALTIMORE      PTSUNNY   96  73  47 S8        29.83F HX 105
ANNAPOLIS      MOSUNNY   95  74  50 S10G21    29.83F HX 105
ANDREWS AFB    FAIR      94  67  40 S15       29.85F HX  97
PHILADELPHIA   CLOUDY    94  74  52 SW15      29.83F HX 104
GREENSBORO     PTSUNNY   96  67  38 SW10      29.96F HX 100
ROCKY MOUNT    SUNNY     94  77  57 SW9       29.96F HX 108
$$

VAZ100-252200-
MARINE

STATION/POSITION TIME  TEMP    WIND        PRES    WAVE   SWELL
                       AIR SEA DIR/SP/G            HT/PER HT/PER
                 (UTC) (F)     (DEG/KT/KT) (MB)    (FT/S) (FT/S)
BRANDYWINE LGT   2000   80     170/ 14/ 15   N/A
CAPE MAY NJ      2000   86 71  140/  8/ 10 1011.1F
LEWES DE         2000   92 76  310/  2/  5 1011.2F
OCEAN-CITY-INLET 2000   78 72  210/ 14/ 18 1012.6F
WACHAPREAGUE VA  2000   88 89  200/ 10/ 13 1013.0F
THOMAS POINT MD  2100   91 85  170/ 12/ 13 1011.6F
GOOSES REEF MD   2000   94 87  230/ 12/ 14 1012.5F   1
COVE POINT MD    2000   96     240/ 12/ 14 1012.0F
SOLOMONS ISLAND  2000   95 84  230/  9/ 10   N/A
BISHOPS HEAD MD  2000   92     190/ 15/ 18 1012.2F
PINEY POINT MD   2000          260/  9/ 15   N/A
POTOMAC MD       2000   93 87  240/ 10/ 12 1010.9F   1/ 2
CAMBRIDGE MD     2000   97 86  240/ 10/ 13 1010.8F
LEWISETTA VA     2000   96 89  240/ 12/ 17 1011.6F
RAPPAHANNOCK LGT 2000          180/ 13/ 14 1013.5F
STINGRAY PT      2000   92 86  160/ 12/ 14 1013.1F   1/ 2
YORK RVR RNG VA  2000   92     230/ 13/ 16 1012.6F
YORKTOWN VA      2000   93 86  230/ 12/ 16 1012.7F
JAMESTOWN VA     2000   93 89  220/  8/ 14   N/A     0
DOMINION TERM VA 2000   89     220/  9/ 11 1013.3F
KIPTOPEKE VA     2000      80  180/  5/  6   N/A
CHES BAY BRIDGE  2000   92 72  200/ 11/ 13 1013.1F
CAPE HENRY VA    2000   95     210/  8/ 11   N/A
WILLOUBY STN VA  2000   90     220/  9/ 10   N/A
CAPE HENRY BUOY  2012      77                N/A     2/ 9
1ST LANDING BUOY 2000   88 80  210/  8/ 10 1012.8F
CAPE CHARLES BUO 2026      76                N/A     2/ 4
OFFSHORE WE BUOY 2021      82                N/A     2/ 3
64NM E OF VA BCH 2050   83 81  200/ 14/ 17 1014.1F   3/ 5   2/ 8
DUCK PIER NC     2000   92 68  210/ 11/ 14 1014.0F
44100 DUCK FRF   2005      79                N/A     1/ 9
44056 DUCK FRF   2011      76                N/A     1/ 8
OREGON INLET NC  2000   85 84  190/ 18/ 21 1015.4F
HATTERAS NC      2000   87 83  210/  9/ 13 1016.1F
DIAMOND SHLS NC  2050   85 86  220/ 17/ 21 1016.0F   3/ 5   2/ 8
CAPE LOOKOUT NC  2100   86     210/ 13/ 18 1016.1F
$$




USA.gov is the U.S. government's official web portal to all federal, state and local government web resources and services.